TimeEST,TemperatureF,Dew PointF,Humidity,Sea Level PressureIn,VisibilityMPH,Wind Direction,Wind SpeedMPH,Gust SpeedMPH,PrecipitationIn,Events,Conditions,WindDirDegrees,DateUTC
12:54 AM,39.9,35.1,83,30.11,10.0,Calm,Calm,-,N/A,,Clear,0,2014-02-23 05:54:00
1:54 AM,41.0,37.0,86,30.09,4.0,Calm,Calm,-,N/A,,Clear,0,2014-02-23 06:54:00
2:00 AM,39.2,35.6,87,30.09,1.5,Calm,Calm,-,N/A,,Clear,0,2014-02-23 07:00:00
2:13 AM,39.2,35.6,87,30.09,4.0,Calm,Calm,-,N/A,,Clear,0,2014-02-23 07:13:00
2:36 AM,39.2,35.6,87,30.09,1.8,Calm,Calm,-,N/A,,Clear,0,2014-02-23 07:36:00
2:45 AM,39.2,33.8,81,30.08,3.0,Calm,Calm,-,0.00,Rain,Light Rain,0,2014-02-23 07:45:00
2:54 AM,39.0,35.1,86,30.08,8.0,Calm,Calm,-,0.00,Rain,Light Rain,0,2014-02-23 07:54:00
3:54 AM,39.9,35.1,83,30.08,10.0,Calm,Calm,-,0.00,,Clear,0,2014-02-23 08:54:00
4:54 AM,39.0,34.0,82,30.08,10.0,Calm,Calm,-,0.00,,Clear,0,2014-02-23 09:54:00
5:54 AM,37.0,32.0,82,30.09,10.0,Calm,Calm,-,N/A,,Clear,0,2014-02-23 10:54:00
6:54 AM,37.0,32.0,82,30.08,10.0,Calm,Calm,-,N/A,,Clear,0,2014-02-23 11:54:00
7:54 AM,42.1,37.0,82,30.09,10.0,Calm,Calm,-,0.00,Rain,Light Rain,0,2014-02-23 12:54:00
8:54 AM,53.1,37.9,57,30.08,10.0,SSW,4.6,-,0.00,,Clear,210,2014-02-23 13:54:00
9:54 AM,57.0,35.1,44,30.06,10.0,SW,8.1,-,N/A,,Clear,220,2014-02-23 14:54:00
10:54 AM,63.0,36.0,37,30.04,10.0,SW,9.2,-,N/A,,Clear,230,2014-02-23 15:54:00
11:54 AM,66.0,34.0,30,30.00,10.0,WSW,10.4,-,N/A,,Clear,250,2014-02-23 16:54:00
12:54 PM,68.0,35.1,30,29.96,10.0,SSW,11.5,-,N/A,,Clear,200,2014-02-23 17:54:00
1:54 PM,69.1,35.1,29,29.93,10.0,SSW,13.8,-,N/A,,Clear,210,2014-02-23 18:54:00
2:54 PM,71.1,36.0,28,29.91,10.0,SW,6.9,-,N/A,,Clear,230,2014-02-23 19:54:00
3:54 PM,71.1,35.1,27,29.89,10.0,SSW,11.5,-,N/A,,Clear,200,2014-02-23 20:54:00
4:54 PM,69.1,36.0,30,29.88,10.0,SW,9.2,-,N/A,,Clear,220,2014-02-23 21:54:00
6:54 PM,57.9,37.0,46,29.87,10.0,SW,6.9,-,N/A,,Clear,220,2014-02-23 23:54:00
7:54 PM,57.0,37.9,49,29.87,10.0,SW,8.1,-,N/A,,Clear,220,2014-02-24 00:54:00
8:54 PM,55.0,37.9,53,29.87,10.0,SW,9.2,-,N/A,,Clear,220,2014-02-24 01:54:00
9:54 PM,55.9,39.0,53,29.86,10.0,SW,10.4,-,N/A,,Clear,220,2014-02-24 02:54:00
10:54 PM,55.0,39.0,55,29.86,10.0,SW,8.1,-,N/A,,Clear,230,2014-02-24 03:54:00
11:54 PM,55.9,35.1,45,29.89,10.0,NNE,12.7,21.9,N/A,,Overcast,20,2014-02-24 04:54:00